Location: Newark
(37.3394°N, 6.0261°W)
Time: 23:23:55
(UTC+00:00)

ISS - Visible Passes

Search period start: 18 March 2019 00:00
Search period end: 28 March 2019 00:00
Orbit: 406 x 411 km, 51.6° (Epoch: 19 March)

Date Brightness Start Highest point End Pass type
(mag) Time Alt. Az. Time Alt. Az. Time Alt. Az.
18 Mar -2.4 05:20:38 23° SW 05:20:38 23° SW 05:22:51 10° S visible
19 Mar -1.8 19:30:20 10° SSE 19:31:39 14° SE 19:31:39 14° SE visible
20 Mar -3.4 20:14:05 10° SW 20:16:46 56° SW 20:16:46 56° SW visible
21 Mar -3.3 19:23:19 10° SSW 19:26:24 39° SE 19:28:50 15° ENE visible
21 Mar -0.8 21:00:23 10° W 21:01:39 17° WNW 21:01:39 17° WNW visible
22 Mar -2.4 20:08:48 10° WSW 20:11:53 36° NW 20:13:29 22° NNE visible
23 Mar -3.5 19:17:29 10° SW 19:20:46 70° NW 19:24:03 10° NE visible
23 Mar -0.8 20:56:11 10° NW 20:57:50 13° NNW 20:57:54 13° NNW visible
24 Mar -1.2 20:04:06 10° WNW 20:06:30 18° NNW 20:08:55 10° NNE visible
25 Mar -1.9 19:12:20 10° W 19:15:15 28° NNW 19:18:10 10° NNE visible
26 Mar -0.8 20:00:10 10° NW 20:01:15 11° NNW 20:02:20 10° N visible
27 Mar -1.0 19:07:48 10° WNW 19:09:52 15° NNW 19:11:56 10° NNE visible
